{"data":{"norad_id":60382,"intl_designator":"2024-140D","name":"QIANFAN-4","alt_names":[],"object_type":"PAYLOAD","status":"ACTIVE","operator":null,"country":"PRC","launch_date":"2024-08-06","launch_site_code":"TAISC","launch_vehicle":null,"mission":null,"orbit_class":"UNKNOWN","rcs_meters":null,"size_class":null,"mass_kg":null,"dimensions":null,"purposes":[],"wikipedia_slug":null,"has_3d_model":false,"image_url":null,"decayed_at":null,"tle_current":{"epoch":"2026-09-22T21:13:37.815744Z","epoch_age_seconds":77648,"freshness":"FRESH","line1":"1 60382U 24140D   26265.88446546  .00000015  00000+0  40575-5 0  9997","line2":"2 60382  88.9667 269.6577 0015078  89.4208 270.8671 13.51021082105807","mean_motion":13.51021082,"eccentricity":0.0015078,"inclination_deg":88.9667,"raan_deg":269.6577,"arg_perigee_deg":89.4208,"mean_anomaly_deg":270.8671,"bstar":4.0575e-6,"rev_number":10580,"period_min":106.58604955803,"perigee_km":1057.2760713854,"apogee_km":1079.7321623374,"semimajor_km":7446.6411168614,"source":"CELESTRAK","updated_at":"2026-09-23T09:00:20.566742Z"}}}